Weather reports worldwide

Advertisment
Chillingham Barns, United Kingdom (99196): temperature & dewpoint: 12.09.2019 04:00:00 - 18.09.2019 04:00:00 (BST)Chillingham Barns, United Kingdom (99196): precipitation: 12.09.2019 04:00:00 - 18.09.2019 04:00:00 (BST)
Date & Time tt [°C] td [°C] rr [mm]
18.09.2019 04:00:00 7,2 5,7 0,0
18.09.2019 03:00:00 7,0 5,2 0,0
18.09.2019 02:00:00 6,4 4,6 0,0
18.09.2019 01:00:00 7,0 4,6 0,0
18.09.2019 00:00:00 8,1 4,9 0,0
17.09.2019 23:00:00 8,8 5,7 0,0
17.09.2019 22:00:00 7,6 5,0 0,0
17.09.2019 21:00:00 8,7 5,1 0,0
17.09.2019 20:00:00 10,3 5,7 0,0
17.09.2019 19:00:00 11,6 4,5 0,0
17.09.2019 18:00:00 12,4 4,6 0,0
17.09.2019 17:00:00 13,3 4,7 0,0
17.09.2019 16:00:00 14,5 4,6 0,0
17.09.2019 15:00:00 15,6 3,4 0,0
17.09.2019 14:00:00 14,9 3,6 0,0
17.09.2019 13:00:00 14,1 3,2 0,0
17.09.2019 12:00:00 13,1 3,6 0,0
17.09.2019 11:00:00 12,7 4,0 0,0
17.09.2019 10:00:00 11,7 5,5 0,0
17.09.2019 09:00:00 9,8 6,1 0,0
17.09.2019 08:00:00 8,1 5,7 0,0
17.09.2019 07:00:00 7,8 5,5 0,0
17.09.2019 06:00:00 8,3 5,7 0,0
17.09.2019 05:00:00 9,0 5,8 0,0
17.09.2019 04:00:00 9,5 5,7 0,0
17.09.2019 03:00:00 9,1 6,2 0,0
17.09.2019 02:00:00 8,8 5,6 0,0
17.09.2019 01:00:00 9,2 5,8 0,0
17.09.2019 00:00:00 9,0 5,8 0,0
16.09.2019 23:00:00 9,4 6,3 0,0
16.09.2019 22:00:00 10,1 6,2 0,0
16.09.2019 21:00:00 10,3 6,2 0,0
16.09.2019 20:00:00 11,2 6,2 0,0
16.09.2019 19:00:00 12,3 6,1 0,0
16.09.2019 18:00:00 14,2 6,8 0,0
16.09.2019 17:00:00 14,8 7,0 0,0
16.09.2019 16:00:00 15,2 7,3 0,0
16.09.2019 15:00:00 16,7 7,5 0,0
16.09.2019 14:00:00 15,8 7,7 0,0
16.09.2019 13:00:00 14,5 6,9 0,0
16.09.2019 12:00:00 14,3 7,8 0,0
16.09.2019 11:00:00 13,5 8,0 0,0
16.09.2019 10:00:00 11,6 8,6 0,0
16.09.2019 09:00:00 6,1 5,8 0,0
16.09.2019 08:00:00 3,8 3,3 0,0
16.09.2019 07:00:00 3,8 3,2 0,0
16.09.2019 06:00:00 4,1 3,3 0,0
16.09.2019 05:00:00 5,1 4,4 0,0
16.09.2019 04:00:00 5,0 4,0 0,0
16.09.2019 03:00:00 5,6 4,1 0,0
16.09.2019 02:00:00 5,7 4,0 0,0
16.09.2019 01:00:00 6,2 4,6 0,0
16.09.2019 00:00:00 7,2 5,1 0,0
15.09.2019 23:00:00 7,0 5,0 0,0
15.09.2019 22:00:00 7,8 5,4 0,0
15.09.2019 21:00:00 8,1 5,4 0,0
15.09.2019 20:00:00 9,6 5,7 0,2
15.09.2019 19:00:00 12,5 7,0 0,0
15.09.2019 18:00:00 13,6 7,1 0,0
15.09.2019 17:00:00 14,4 7,7 0,0
15.09.2019 16:00:00 14,1 8,4 0,0
15.09.2019 15:00:00 13,6 7,6 0,0
15.09.2019 14:00:00 13,5 8,4 0,0
15.09.2019 13:00:00 12,2 6,8 0,0
15.09.2019 12:00:00 12,1 6,7 0,0
15.09.2019 11:00:00 11,7 6,6 0,0
15.09.2019 10:00:00 11,5 6,4 0,0
15.09.2019 09:00:00 11,3 6,7 0,0
15.09.2019 08:00:00 11,1 7,2 0,0
15.09.2019 07:00:00 10,7 7,7 0,0
15.09.2019 06:00:00 11,2 7,9 0,0
15.09.2019 05:00:00 11,4 7,9 0,0
15.09.2019 04:00:00 12,4 10,1 0,0
15.09.2019 03:00:00 12,8 11,2 0,6
15.09.2019 02:00:00 15,3 13,0 0,0
15.09.2019 01:00:00 15,9 12,4 0,0
15.09.2019 00:00:00 15,8 11,8 0,0
14.09.2019 23:00:00 15,8 10,2 0,0
14.09.2019 22:00:00 15,8 9,1 0,0
14.09.2019 21:00:00 15,5 8,4 0,0
14.09.2019 20:00:00 14,7 8,1 0,0
14.09.2019 19:00:00 15,5 7,1 0,0
14.09.2019 18:00:00 16,0 6,6 0,0
14.09.2019 17:00:00 16,4 7,9 0,0
14.09.2019 16:00:00 15,5 8,4 0,0
14.09.2019 15:00:00 15,7 9,1 0,0
14.09.2019 14:00:00 15,6 9,3 0,0
14.09.2019 13:00:00 15,2 8,2 0,0
14.09.2019 12:00:00 16,1 8,0 0,0
14.09.2019 11:00:00 15,1 8,4 0,0
14.09.2019 10:00:00 12,0 7,3 0,0
14.09.2019 09:00:00 11,3 7,1 0,0
14.09.2019 08:00:00 11,0 7,5 0,0
14.09.2019 07:00:00 11,4 7,6 0,0
14.09.2019 06:00:00 11,4 8,2 0,0
14.09.2019 05:00:00 10,3 7,5 0,0
14.09.2019 04:00:00 9,7 6,5 0,0
14.09.2019 03:00:00 8,6 5,3 0,0
14.09.2019 02:00:00 8,4 5,2 0,0
14.09.2019 01:00:00 9,4 5,9 0,0
14.09.2019 00:00:00 7,6 5,6 0,0
13.09.2019 23:00:00 8,6 5,9 0,0
13.09.2019 22:00:00 8,8 5,9 0,0
13.09.2019 21:00:00 9,5 5,9 0,0
13.09.2019 20:00:00 10,8 5,9 0,0
13.09.2019 19:00:00 14,4 7,2 0,0
13.09.2019 18:00:00 15,6 7,6 0,0
13.09.2019 17:00:00 17,5 7,1 0,0
13.09.2019 16:00:00 17,4 7,0 0,0
13.09.2019 15:00:00 16,6 6,2 0,0
13.09.2019 14:00:00 17,7 8,2 0,0
13.09.2019 13:00:00 15,9 6,7 0,0
13.09.2019 12:00:00 14,8 8,5 0,0
13.09.2019 11:00:00 14,2 6,6 0,0
13.09.2019 10:00:00 13,8 7,8 0,0
13.09.2019 09:00:00 11,9 7,6 0,0
13.09.2019 08:00:00 10,9 7,1 0,0
13.09.2019 07:00:00 9,6 6,8 0,0
13.09.2019 06:00:00 9,7 6,7 0,0
13.09.2019 05:00:00 9,1 6,7 0,0
13.09.2019 04:00:00 8,5 6,2 0,0
13.09.2019 03:00:00 9,1 6,7 0,0
13.09.2019 02:00:00 8,5 5,9 0,0
13.09.2019 01:00:00 9,8 6,4 0,0
13.09.2019 00:00:00 10,8 7,2 0,0
12.09.2019 23:00:00 11,5 7,7 0,0
12.09.2019 22:00:00 11,9 7,6 0,0
12.09.2019 21:00:00 13,0 8,5 0,0
12.09.2019 20:00:00 13,9 11,2 0,0
12.09.2019 19:00:00 14,9 12,3 0,0
12.09.2019 18:00:00 16,1 14,2 0,0
12.09.2019 17:00:00 15,9 14,5 0,0
12.09.2019 16:00:00 15,5 14,9 1,0
12.09.2019 15:00:00 15,7 15,2 0,6
12.09.2019 14:00:00 15,3 14,2 0,0
12.09.2019 13:00:00 15,3 12,7 0,0
12.09.2019 12:00:00 15,6 11,9 0,0
12.09.2019 11:00:00 15,4 11,5 0,0
12.09.2019 10:00:00 15,9 11,9 0,0
12.09.2019 09:00:00 15,3 11,1 0,0
12.09.2019 08:00:00 13,6 10,3 0,0
12.09.2019 07:00:00 13,1 9,7 0,0
12.09.2019 06:00:00 12,7 8,9 0,0
12.09.2019 05:00:00 12,8 8,7 0,0
12.09.2019 04:00:00 12,1 8,7 0,0

tt = temperature
td = dewpoint
rr = precipitation

Next stations